www.pogodaiklimat.ru

Погода и климат >> Архив погоды >> Индонезия >> Nangapinoh


ПОГОДА в Nangapinoh

  • Прогноз погоды в Nangapinoh
  • Монитор погоды в Nangapinoh
  • Климат города

АРХИВ ПОГОДЫ в Nangapinoh

Время (UTC), дата Ветер
(напр.,м/с)
 
Видим.   Явления Облачность Т
(С)
Тd
(С)
f
(%)
Тe
(С)
Тes
(С)
Комфортность P
(гПа)
Po
(гПа)
Тmin
(С)
Tmax
(С)
R
(мм)
R24
(мм)
S
(см)
06 17.06 ЮВ 3 10 км 8/0 2000 м
[Cu med, cong As trans Ci fib]
+32.5 +23.9 61 +44 +53 опасность
перегрева
1007.4 1002.6
09 17.06 В 5 8000 м слабый дождь 9/0
[Cb cap As op Ci fib]
+29.4 +24.2 74 +41 +42 опасность
перегрева
1006.0 1001.2
12 17.06 штиль 0 6000 м {гроза, дождь} 9/0
[Cb cap As op Ci fib]
+27.4 +25.1 87 +39 +39 очень
душно
1008.1 1003.3 +35.1
15 17.06 штиль 0 4000 м зарница 8/0
[Cb cap As op Ci fib]
+26.4 +25.2 93 +38 +38 очень
душно
1009.5 1004.7
00 18.06 штиль 0 6000 м 10/0 2000 м
[Cu med, cong As op]
+25.6 +24.7 95 +36 +37 очень
душно
1010.1 1005.3 +25.1
03 18.06 Ю 2 6000 м слабый дождь 10/0
[Cb cap As op]
+26.4 +25.9 97 +39 +43 очень
душно
1010.6 1005.8
06 18.06 В 3 10 км {дождь} 9/0
[Cb cap As op Ci fib]
+30.4 +24.6 71 +43 +51 опасность
перегрева
1007.7 1002.9
09 18.06 ЮВ 4 3000 м гроза, ливневой дождь 10/6 300 м
[Cb cap As op]
+26.0 +23.6 87 +35 +36 очень
душно
1007.7 1002.9 8
12 18.06 З 1 4000 м мгла {гроза, дождь} 10/6 300 м
[Cb cap As op]
+24.9 +23.1 90 +33 +33 очень
душно
1009.2 1004.4 +31.7 6
15 18.06 штиль 0 2000 м мгла 10/6 300 м
[Cb cap As op]
+24.6 +23.7 95 +33 +33 очень
душно
1010.4 1005.7
00 19.06 штиль 0 1000 м слабый дождь 10/6 300 м
[Cb cap As op]
+24.2 +23.9 98 +33 +33 очень
душно
1011.3 1006.5 +24.2 48
03 19.06 В 2 5000 м мгла {дождь} 10/6 300 м
[Cb calv As op]
+26.8 +24.4 87 +38 +39 очень
душно
1011.9 1007.1 0.0
06 19.06 СВ 2 7000 м осадки на расстоянии {дождь} 10/8 300 м
[Cb cap As op]
+27.1 +22.8 77 +36 +37 очень
душно
1010.6 1005.8 0.0
09 19.06 ЮЗ 3 5000 м слабый дождь 10/6 300 м
[Cb cap As op]
+24.0 +23.4 96 +32 +32 очень
душно
1009.2 1004.4 12
12 19.06 СВ 1 4000 м слабый дождь 10/6 300 м
[Cb cap As op]
+24.1 +23.5 96 +32 +32 очень
душно
1010.7 1005.9 +28.6 0.7
15 19.06 штиль 0 1000 м слабый дождь 10/6 300 м
[Cb cap As op]
+23.8 +23.4 98 +32 +32 очень
душно
1012.0 1007.2 0.0
00 20.06 штиль 0 1000 м дымка 10/8 300 м
[Cu Sc As op]
+23.6 +23.4 99 +32 +32 очень
душно
1011.7 1006.9 +23.3 13
03 20.06 ЮЗ 1 10 км 9/6 300 м
[Cu med, cong Ac As]
+26.6 +23.5 83 +36 +40 очень
душно
1012.1 1007.3
06 20.06 С 1 10 км 9/6 300 м
[Cu med, cong Ac As Ci fib]
+29.8 +23.0 67 +40 +44 очень
душно
1009.5 1004.7
09 20.06 СВ 1 10 км 8/6 300 м
[Cb calv Ac As Ci fib]
+29.7 +24.7 75 +42 +43 опасность
перегрева
1007.9 1003.1
12 20.06 штиль 0 7000 м 8/5 330 м
[Cu med, cong As op Ci fib]
+28.2 +25.6 86 +42 +42 опасность
перегрева
1009.6 1004.8 +31.0
15 20.06 В 1 4000 м мгла 9/5 330 м
[Cu med, cong As op Ci fib]
+26.2 +24.4 90 +37 +37 очень
душно
1011.0 1006.2
00 21.06 штиль 0 2000 м мгла 9/6 300 м
[Cb calv As op]
+24.7 +23.7 94 +34 +34 очень
душно
1011.4 1006.6 +23.4
03 21.06 С 1 10 км 9/6 300 м
[Cb calv As op]
+28.7 +23.9 75 +40 +42 очень
душно
1011.7 1006.9
06 21.06 В 2 10 км 9/6 300 м
[Cb calv As op Ci fib]
+30.8 +24.7 70 +44 +48 опасность
перегрева
1009.9 1005.1
09 21.06 СЗ 2 10 км 8/5 330 м
[Cu med, cong Ac As Ci fib]
+32.1 +24.6 65 +45 +46 опасность
перегрева
1007.8 1003.0
12 21.06 штиль 0 6000 м зарница 8/6 300 м
[Cb cap As op Ci fib]
+29.0 +25.7 82 +43 +43 опасность
перегрева
1009.9 1005.1 +32.6
15 21.06 Ю 3 3000 м мгла 9/6 300 м
[Cb cap As op Ci fib]
+25.5 +23.3 88 +34 +34 очень
душно
1012.6 1007.9
00 22.06 В 2 6000 м 9/6 300 м
[Cb cap Ac As Ci fib]
+24.0 +22.9 94 +32 +33 очень
душно
1012.0 1007.2 +23.8
03 22.06 С 2 10 км 8/6 330 м
[Cu med, cong Ac As Ci fib]
+29.0 +23.5 72 +39 +44 очень
душно
1012.5 1007.7
06 22.06 СЗ 2 10 км 6/6 330 м
[Cu med, cong As trans Ci fib]
+32.2 +23.4 60 +43 +49 опасность
перегрева
1009.6 1004.8
09 22.06 С 2 10 км 8/6 300 м
[Cb cap As op Ci fib]
+33.2 +23.7 58 +45 +46 опасность
перегрева
1008.0 1003.2
12 22.06 В 1 5000 м мгла {гроза} 8/6 300 м
[Cb cap As op Ci fib]
+28.8 +25.1 80 +42 +42 опасность
перегрева
1009.7 1004.9 +33.7
15 22.06 ЮЗ 2 2000 м зарница 9/6 300 м
[Cb cap As op]
+27.0 +25.0 89 +39 +39 очень
душно
1011.3 1006.5
00 23.06 штиль 0 1000 м мгла 9/4 300 м
[Cu med, cong Ac As Ci fib]
+25.5 +24.1 92 +35 +36 очень
душно
1010.9 1006.1 +23.6
03 23.06 ЮВ 2 10 км 6/4 330 м
[Cu med, cong As trans Ci fib]
+29.4 +24.2 74 +41 +50 опасность
перегрева
1010.2 1005.4
06 23.06 В 2 10 км 8/6 330 м
[Cu med, cong As trans Ci fib]
+33.7 +23.7 56 +45 +50 опасность
перегрева
1007.9 1003.1
09 23.06 В 2 10 км 8/6 300 м
[Cb cap As op Ci fib]
+34.4 +23.1 52 +45 +46 опасность
перегрева
1005.9 1001.1
12 23.06 СВ 2 7000 м зарница 9/6 300 м
[Cb cap As op Ci fib]
+30.8 +25.3 73 +45 +45 опасность
перегрева
1008.0 1003.2 +35.0
15 23.06 З 1 1000 м зарница 9/6 300 м
[Cb cap As op]
+27.4 +24.0 82 +38 +38 очень
душно
1010.2 1005.4
00 24.06 З 2 1000 м слабый дождь 10/8 300 м
[Cb cap As op]
+23.8 +22.8 94 +31 +31 очень
душно
1011.4 1006.6 +23.3 6
03 24.06 В 2 3000 м слабый дождь 10/8 300 м
[Cb cap As op]
+23.9 +23.2 96 +32 +33 очень
душно
1012.3 1007.5 3

 

Местоположение метеостанции Nangapinoh (Индонезия): широта -0.35 долгота 111.78 высота над уровнем моря 37 м.

В архиве по умолчанию представлена погода в Nangapinoh за последнюю неделю. Архивные данные за месяц целиком и за предыдущие месяцы, начиная с января 2011 года, Вы можете получить, выбрав интересующий диапазон дат из раскрывающегося списка и нажав кнопку "Ввод!".

Внимание! Время в таблицах - всемирное. Для получения местного времени необходимо прибавить поправку, которая в Nangapinoh равна 7 ч.

Смотрите также архив погоды в соседних городах и на ближайших метеорологических станциях:

Погода в Sintang (Индонезия) (59 км)
Погода в Putussibau (Индонезия) (185 км)
Погода в Palangkaraya (Индонезия) (257 км)
Погода в Kuching (Малайзия) (260 км)
Погода в Pangkalan Bun (Индонезия) (262 км)
Погода в Ketapang (Индонезия) (262 км)
Погода в Pontianak (Индонезия) (266 км)
Погода в Sibu (Малайзия) (298 км)
Погода в Muaratewe (Индонезия) (353 км)
Погода в Paloh (Индонезия) (363 км)

Пояснения к столбцам:

Ветер - указаны скорость ветра в м/с - средняя за 10 мин, порывы в срок и между сроками (в фигурных скобках) и направление, откуда дует ветер: С - северный, СВ - северо-восточный, В - восточный, ЮВ - юго-восточный, Ю - южный, ЮЗ - юго-западный, З - западный, СЗ - северо-западный.
Видимость - горизонтальная дальность видимости в метрах или километрах. При видимости от 1 до 10 км при отсутствии осадков обычно наблюдается дымка, при ухудшении видимости до 1 км и менее - туман. В сухую погоду видимость может ухудшаться дымом, пылью или мглою.
Явления - указаны атмосферные явления, наблюдавшиеся в срок или в последний час перед сроком; фигурными скобками обозначены явления, наблюдавшиеся между сроками (за 1-3 часа до срока); квадратными скобками обозначены град или гололедные отложения с указанием их диаметра в мм.
Облачность - указаны через наклонную черту общая и нижняя облачность в баллах и высота нижней границы облаков в метрах; квадратными скобками обозначены формы облаков: Ci - перистые, Cs - перисто-слоистые, Cc - перисто-кучевые, Ac - высококучевые, As - высокослоистые, Sc - слоисто-кучевые, Ns - слоисто-дождевые, Cu - кучевые, Cb - кучево-дождевые. Подробнее классификацию облаков см. в Атласе облаков (PDF).
T - Температура воздуха - температура, измеренная на высоте 2 м над землей.
Td - Температура точки росы - температура, при понижении до которой содержащийся в воздухе водяной пар достигнет насыщения.
f - Относительная влажность воздуха - влажноcть воздуха, измеренная на высоте 2 м над землей.
Te - Эффективная температура - температура, которую ощущает одетый по сезону человек в тени. Характеристика душности погоды. При расчете учитывается влияние влажности воздуха и скорости ветра на теплоощущения человека.
Tes - Эффективная температура на солнце - температура, которую ощущает человек, с поправкой на солнечный нагрев. Характеристика знойности погоды. Зависит от высоты солнца над горизонтом, облачности и скорости ветра. Ночью, в пасмурную погоду, а также при ветре 12 м/с и более поправка равна нулю.
P - Атмосферное давление - приведенное к уровню моря атмосферное давление.
Po - Атмосферное давление - измеренное на уровне метеостанции атмосферное давление.
Tmin - Минимальная температура - минимум температуры воздуха на высоте 2 м над землей.
Tmax - Максимальная температура - максимум температуры воздуха на высоте 2 м над землей.
R - Количество осадков - Количество выпавших осадков за период времени, мм. При наведении курсора мыши на число - период времени, за который выпало указанное количество осадков.
R24 - Количество осадков - Количество выпавших осадков за 24 часа, мм.
S - Снежный покров - Высота снежного покрова, см. При наведении курсора мыши на число - состояние снежного покрова и степень покрытия местности в баллах.